| time (UTC) | temp C | wind direction | speed KPH | gust KPH | rain 1hr cm | rain 24hr cm | rain mn cm | humidity % | barometer mb |
| 20260508033052 | 16 | 0 | 0.0 | 9.7 | 0.00 | 0.00 | 0.00 | 86 | 1014.8 |
| 20260508031551 | 16 | 133 | 0.0 | 4.8 | 0.00 | 0.00 | 0.00 | 86 | 1014.6 |
| 20260508030057 | 17 | 141 | 0.0 | 4.8 | 0.00 | 0.00 | 0.00 | 85 | 1014.5 |
| 20260508024553 | 17 | 0 | 0.0 | 8.0 | 0.00 | 0.00 | 0.00 | 85 | 1014.2 |
| 20260508023059 | 17 | 110 | 1.6 | 8.0 | 0.00 | 0.00 | 0.00 | 84 | 1014.1 |
| 20260508021554 | 17 | 128 | 3.2 | 14.5 | 0.00 | 0.00 | 0.00 | 83 | 1014.1 |
| 20260508020057 | 18 | 0 | 0.0 | 11.3 | 0.00 | 0.00 | 0.00 | 82 | 1014.0 |
| 20260508014558 | 18 | 86 | 0.0 | 4.8 | 0.00 | 0.00 | 0.00 | 79 | 1014.0 |
| 20260508013053 | 19 | 95 | 1.6 | 9.7 | 0.00 | 0.00 | 0.00 | 79 | 1013.8 |
| 20260508011558 | 19 | 0 | 0.0 | 6.4 | 0.00 | 0.00 | 0.00 | 77 | 1013.8 |
| 20260508010055 | 20 | 0 | 3.2 | 16.1 | 0.00 | 0.00 | 0.00 | 76 | 1013.9 |
| 20260508004554 | 20 | 113 | 0.0 | 8.0 | 0.00 | 0.00 | 0.00 | 77 | 1013.8 |
| 20260508003053 | 20 | 146 | 1.6 | 12.9 | 0.00 | 0.00 | 0.00 | 78 | 1013.9 |
| 20260508001551 | 20 | 0 | 3.2 | 14.5 | 0.00 | 0.00 | 0.00 | 76 | 1013.8 |
| 20260508000058 | 20 | 0 | 3.2 | 14.5 | 0.00 | 0.00 | 0.00 | 76 | 1013.9 |
| 20260507234604 | 20 | 132 | 1.6 | 11.3 | 0.00 | 0.00 | 0.00 | 77 | 1014.0 |
| 20260507233113 | 20 | 119 | 1.6 | 14.5 | 0.00 | 0.00 | 0.00 | 76 | 1014.0 |
| 20260507231549 | 20 | 133 | 3.2 | 14.5 | 0.00 | 0.00 | 0.00 | 76 | 1014.1 |
| 20260507230052 | 21 | 139 | 3.2 | 12.9 | 0.00 | 0.00 | 0.00 | 75 | 1014.0 |
| 20260507224553 | 20 | 202 | 1.6 | 19.3 | 0.00 | 0.00 | 0.00 | 76 | 1014.0 |
| 20260507223105 | 20 | 104 | 1.6 | 12.9 | 0.00 | 0.00 | 0.00 | 77 | 1014.0 |
| 20260507221556 | 20 | 117 | 3.2 | 12.9 | 0.00 | 0.00 | 0.00 | 77 | 1014.3 |
| 20260507220057 | 20 | 232 | 3.2 | 9.7 | 0.00 | 0.00 | 0.00 | 75 | 1014.5 |
| 20260507214551 | 20 | 132 | 3.2 | 11.3 | 0.00 | 0.00 | 0.00 | 74 | 1014.6 |
| 20260507213052 | 20 | 347 | 3.2 | 14.5 | 0.00 | 0.00 | 0.00 | 74 | 1014.7 |
| 20260507211559 | 20 | 150 | 4.8 | 14.5 | 0.00 | 0.00 | 0.00 | 75 | 1014.8 |
| 20260507210109 | 20 | 125 | 3.2 | 17.7 | 0.00 | 0.00 | 0.00 | 75 | 1015.1 |
| 20260507204554 | 20 | 192 | 3.2 | 19.3 | 0.00 | 0.00 | 0.00 | 76 | 1015.2 |
| 20260507203053 | 20 | 126 | 1.6 | 14.5 | 0.00 | 0.00 | 0.00 | 75 | 1015.3 |
| 20260507201555 | 21 | 82 | 1.6 | 12.9 | 0.00 | 0.00 | 0.00 | 74 | 1015.4 |
| 20260507200058 | 21 | 0 | 3.2 | 17.7 | 0.00 | 0.00 | 0.00 | 74 | 1015.6 |
| 20260507194558 | 21 | 127 | 3.2 | 12.9 | 0.00 | 0.00 | 0.00 | 74 | 1015.7 |
| 20260507193050 | 20 | 173 | 3.2 | 14.5 | 0.00 | 0.00 | 0.00 | 75 | 1015.8 |
| 20260507191552 | 21 | 152 | 4.8 | 11.3 | 0.00 | 0.00 | 0.00 | 74 | 1015.9 |
| 20260507190059 | 21 | 0 | 3.2 | 11.3 | 0.00 | 0.00 | 0.00 | 73 | 1016.0 |
| 20260507184555 | 20 | 0 | 1.6 | 12.9 | 0.00 | 0.00 | 0.00 | 75 | 1016.0 |
| 20260507183112 | 20 | 109 | 3.2 | 9.7 | 0.00 | 0.00 | 0.00 | 76 | 1016.0 |
| 20260507181557 | 20 | 136 | 3.2 | 12.9 | 0.00 | 0.00 | 0.00 | 76 | 1016.1 |
| 20260507180054 | 20 | 176 | 1.6 | 11.3 | 0.00 | 0.00 | 0.00 | 77 | 1016.2 |
| 20260507174603 | 20 | 127 | 4.8 | 12.9 | 0.00 | 0.00 | 0.00 | 75 | 1016.3 |
| 20260507173113 | 20 | 172 | 1.6 | 11.3 | 0.00 | 0.00 | 0.00 | 76 | 1016.4 |
| 20260507171554 | 20 | 174 | 1.6 | 9.7 | 0.00 | 0.00 | 0.00 | 77 | 1016.4 |
| 20260507170054 | 20 | 96 | 1.6 | 8.0 | 0.00 | 0.00 | 0.00 | 77 | 1016.3 |
| 20260507164630 | 20 | 190 | 1.6 | 9.7 | 0.00 | 0.00 | 0.00 | 75 | 1016.4 |
| 20260507163059 | 20 | 106 | 0.0 | 6.4 | 0.00 | 0.00 | 0.00 | 77 | 1016.5 |
| 20260507161559 | 19 | 140 | 1.6 | 4.8 | 0.00 | 0.00 | 0.00 | 77 | 1016.5 |
| 20260507160051 | 18 | 140 | 1.6 | 6.4 | 0.00 | 0.00 | 0.00 | 80 | 1016.6 |
| 20260507154558 | 18 | 0 | 3.2 | 12.9 | 0.00 | 0.00 | 0.00 | 81 | 1016.6 |
| 20260507153059 | 18 | 162 | 1.6 | 8.0 | 0.00 | 0.00 | 0.00 | 82 | 1016.5 |
| 20260507151554 | 17 | 139 | 1.6 | 6.4 | 0.00 | 0.00 | 0.00 | 82 | 1016.6 |
| 20260507150053 | 17 | 0 | 1.6 | 8.0 | 0.00 | 0.00 | 0.00 | 85 | 1016.6 |
| 20260507144551 | 17 | 144 | 1.6 | 6.4 | 0.00 | 0.00 | 0.00 | 86 | 1016.6 |
| 20260507143109 | 16 | 0 | 0.0 | 6.4 | 0.00 | 0.00 | 0.00 | 88 | 1016.5 |
| 20260507141558 | 16 | 151 | 0.0 | 4.8 | 0.00 | 0.00 | 0.00 | 89 | 1016.4 |
| 20260507140057 | 15 | 0 | 0.0 | 4.8 | 0.00 | 0.00 | 0.00 | 91 | 1016.2 |
| 20260507134553 | 15 | 0 | 0.0 | 4.8 | 0.00 | 0.00 | 0.00 | 92 | 1016.1 |
| 20260507133056 | 14 | 150 | 0.0 | 3.2 | 0.00 | 0.00 | 0.00 | 92 | 1015.9 |
| 20260507131601 | 13 | 0 | 0.0 | 1.6 | 0.00 | 0.00 | 0.00 | 93 | 1015.9 |
| 20260507130055 | 13 | 0 | 0.0 | 3.2 | 0.00 | 0.00 | 0.00 | 92 | 1015.8 |
| 20260507124601 | 13 | 0 | 0.0 | 4.8 | 0.00 | 0.00 | 0.00 | 92 | 1015.7 |
| 20260507123054 | 13 | 153 | 0.0 | 1.6 | 0.00 | 0.00 | 0.00 | 92 | 1015.7 |
| 20260507121553 | 13 | 0 | 0.0 | 0.0 | 0.00 | 0.00 | 0.00 | 92 | 1015.8 |
| 20260507120059 | 13 | 0 | 0.0 | 0.0 | 0.00 | 0.00 | 0.00 | 92 | 1015.8 |
| 20260507114608 | 13 | 0 | 0.0 | 0.0 | 0.00 | 0.00 | 0.00 | 91 | 1015.7 |
| 20260507113117 | 13 | 0 | 0.0 | 1.6 | 0.00 | 0.00 | 0.00 | 91 | 1015.8 |
| 20260507111556 | 13 | 0 | 0.0 | 1.6 | 0.00 | 0.00 | 0.00 | 91 | 1015.8 |
| 20260507110053 | 14 | 0 | 0.0 | 1.6 | 0.00 | 0.00 | 0.00 | 91 | 1015.9 |
| 20260507104552 | 14 | 0 | 0.0 | 3.2 | 0.00 | 0.00 | 0.00 | 91 | 1016.0 |
| 20260507103054 | 14 | 0 | 0.0 | 3.2 | 0.00 | 0.00 | 0.00 | 91 | 1016.2 |
| 20260507101550 | 14 | 0 | 0.0 | 3.2 | 0.00 | 0.00 | 0.00 | 91 | 1016.2 |
| 20260507100056 | 14 | 0 | 0.0 | 0.0 | 0.00 | 0.00 | 0.00 | 90 | 1016.2 |
| 20260507094550 | 14 | 0 | 0.0 | 1.6 | 0.00 | 0.00 | 0.00 | 90 | 1016.3 |
| 20260507093053 | 14 | 0 | 0.0 | 1.6 | 0.00 | 0.00 | 0.00 | 89 | 1016.5 |
| 20260507091612 | 14 | 0 | 0.0 | 1.6 | 0.00 | 0.00 | 0.00 | 89 | 1016.5 |
| 20260507090051 | 15 | 0 | 0.0 | 3.2 | 0.00 | 0.00 | 0.00 | 89 | 1016.6 |
| 20260507084603 | 15 | 0 | 0.0 | 3.2 | 0.00 | 0.00 | 0.00 | 89 | 1016.7 |
| 20260507083050 | 15 | 0 | 0.0 | 3.2 | 0.00 | 0.00 | 0.00 | 89 | 1016.9 |
| 20260507081559 | 15 | 151 | 0.0 | 4.8 | 0.00 | 0.00 | 0.00 | 89 | 1017.0 |
| 20260507080055 | 15 | 151 | 0.0 | 4.8 | 0.00 | 0.00 | 0.00 | 89 | 1017.0 |
| 20260507074557 | 15 | 0 | 0.0 | 4.8 | 0.00 | 0.00 | 0.00 | 89 | 1017.1 |
| 20260507073056 | 15 | 0 | 0.0 | 4.8 | 0.00 | 0.00 | 0.00 | 89 | 1017.2 |
| 20260507071553 | 15 | 0 | 0.0 | 6.4 | 0.00 | 0.00 | 0.00 | 90 | 1017.2 |
| 20260507070054 | 15 | 0 | 0.0 | 6.4 | 0.00 | 0.00 | 0.00 | 90 | 1017.2 |
| 20260507064557 | 15 | 0 | 0.0 | 3.2 | 0.00 | 0.00 | 0.00 | 89 | 1017.3 |
| 20260507063053 | 15 | 0 | 0.0 | 6.4 | 0.00 | 0.00 | 0.00 | 89 | 1017.4 |
| 20260507061554 | 15 | 136 | 1.6 | 6.4 | 0.00 | 0.00 | 0.00 | 89 | 1017.3 |
| 20260507060101 | 15 | 137 | 1.6 | 6.4 | 0.00 | 0.00 | 0.00 | 89 | 1017.4 |
| 20260507054557 | 15 | 130 | 0.0 | 9.7 | 0.00 | 0.00 | 0.00 | 88 | 1017.4 |
| 20260507053055 | 15 | 0 | 1.6 | 9.7 | 0.00 | 0.00 | 0.00 | 88 | 1017.5 |
| 20260507051553 | 15 | 0 | 1.6 | 6.4 | 0.00 | 0.00 | 0.00 | 88 | 1017.4 |
| 20260507050057 | 15 | 130 | 0.0 | 4.8 | 0.00 | 0.00 | 0.00 | 87 | 1017.4 |
| 20260507044609 | 16 | 0 | 0.0 | 8.0 | 0.00 | 0.00 | 0.00 | 86 | 1017.4 |
| 20260507043104 | 16 | 145 | 0.0 | 3.2 | 0.00 | 0.00 | 0.00 | 85 | 1017.4 |
| 20260507041559 | 16 | 157 | 1.6 | 6.4 | 0.00 | 0.00 | 0.00 | 86 | 1017.3 |
| 20260507040057 | 16 | 0 | 1.6 | 9.7 | 0.00 | 0.00 | 0.00 | 86 | 1017.2 |
| 20260507034555 | 16 | 0 | 1.6 | 9.7 | 0.00 | 0.00 | 0.00 | 85 | 1016.9 |